www.pogodaiklimat.ru

ПОГОДА в Оксфорде, NC

  • Прогноз погоды в Оксфорде
  • Монитор погоды в Оксфорде
  • Климат в Оксфорде

АРХИВ ПОГОДЫ в Оксфорде

Время (UTC), дата Ветер
(напр.,м/с)
 
Видим.   Явления Облачность Т
(С)
Тd
(С)
f
(%)
Тe
(С)
Тes
(С)
Комфортность

P
(гПа)

Po
(гПа)
Тmin
(С)
Tmax
(С)
R
(мм)
SD
(см)
17:40 25.03 Ю  16 км    н/о  +18.7  +9.6  55  +20  +20      994.2         
18:00 25.03 Ю  16 км    ясно  +18.6  +9.5  55  +19  +25      993.9         
18:20 25.03 Ю  16 км    ясно  +19.1  +9.8  55  +20  +29      993.6         
18:40 25.03   16 км    ясно  +19.1  +9.7  54  +20  +36  опасность
простуды 
  993.6         
19:00 25.03 Ю  6
{8} 
16 км    ясно  +19.1  +9.3  53  +19  +22      992.9         
19:20 25.03   16 км    5/0 2700 м
[средняя] 
+19.1  +9.2  53  +20  +27      992.9         
19:40 25.03   16 км    5/0 2700 м
[средняя] 
+18.7  +9.4  55  +19  +27      992.6         
20:00 25.03 З  16 км  слабая морось  5/5 1500 м
[средняя] 
+18.3  +9.4  56  +19  +21      992.9         
20:20 25.03 СЗ  11 км  дождь  8/8 150 м  +15.3  +11.2  77  +14  +15      993.9         
20:40 25.03   8 км  дождь  10/10 150 м  +13.6  +12.0  90  +13  +13      994.6         
21:00 25.03   11 км  слабый дождь  10/10 120 м  +12.9  +11.3  90  +12  +12      994.6         
21:20 25.03   11 км  дождь  10/10 60 м  +12.5  +11.2  92  +12  +12      994.6         
21:40 25.03   16 км  слабый дождь  10/10 60 м  +12.2  +11.2  94  +12  +12      994.2         
22:00 25.03   16 км  дождь  10/10 60 м  +12.0  +11.2  95  +11  +11      994.6         
22:20 25.03   11 км  слабый дождь  10/10 60 м  +12.0  +11.2  95  +11  +11      994.6         
22:40 25.03   11 км  дождь  10/10 60 м  +11.8  +11.1  95  +11  +11      994.6         
23:00 25.03   8 км  дождь  10/10 120 м  +11.7  +11.0  95  +11  +11      994.6         
23:20 25.03   11 км  слабый дождь  10/10 60 м  +11.5  +11.0  97  +11  +11      994.2         
23:40 25.03   16 км  дождь  10/10 60 м  +11.5  +10.8  95  +11  +11      994.6         
00:00 26.03   11 км  слабый дождь  10/10 150 м  +11.4  +10.7  95  +11  +11      994.6         
00:20 26.03   11 км  слабый дождь  10/10 150 м  +11.1  +10.5  96  +10  +10      994.6         
00:40 26.03   11 км  слабый дождь  10/10 150 м  +10.6  +9.8  95  +10  +10      994.9         
01:00 26.03   16 км  слабый дождь  10/10 60 м  +10.5  +9.5  94  +10  +10      994.6         
01:20 26.03   16 км  дождь  8/8 60 м  +10.0  +9.4  96  +9  +9      994.6         
01:40 26.03   16 км  слабая морось  5/5 60 м  +10.0  +9.1  94  +9  +9      994.6         
02:00 26.03   16 км  слабый дождь  5/5 30 м  +9.8  +9.1  95  +9  +9      994.2         
02:20 26.03   16 км  слабая морось  5/5 30 м  +9.6  +9.1  97  +9  +9      994.6         
02:40 26.03   16 км    5/5 300 м  +9.6  +9.0  96  +9  +9      994.6         
03:00 26.03   16 км    10/10 240 м  +9.6  +9.1  97  +9  +9      994.6         
03:20 26.03 С  11 км    10/10 90 м  +9.5  +9.0  97  +7  +7      994.6         
03:40 26.03 СВ  8 км  дымка  10/10 90 м  +9.2  +8.7  97  +6  +6      994.6         
04:00 26.03 С  8 км  дымка  10/10 90 м  +9.1  +8.6  97  +6  +6      994.9         
04:20 26.03 С  4
{7} 
8 км  дымка  10/10 90 м  +8.8  +8.3  97  +5  +5      994.9         
04:40 26.03 С  4
{7} 
8 км  дождь  10/10 90 м  +8.5  +8.0  97  +5  +5      995.6         
05:00 26.03 С  5
{9} 
11 км  слабый дождь  10/10 150 м  +8.2  +7.5  95  +4  +4      995.6         
05:20 26.03 С  4
{7} 
16 км  морось  10/10 270 м  +7.5  +6.0  90  +4  +4      995.9         
05:40 26.03 С  16 км  морось  8/8 480 м  +6.7  +5.1  90  +4  +4      996.2         
06:00 26.03 СВ  4
{8} 
16 км  морось  5/5 360 м  +6.2  +4.8  91  +2  +2      996.5         
06:20 26.03 СВ  4
{9} 
16 км  слабый дождь  8/8 240 м  +5.5  +3.1  85  +1  +1      996.9         
06:40 26.03 СВ  16 км  слабый дождь  8/8 240 м  +5.2  +3.2  87  +1  +1      996.9         
07:00 26.03 СВ  16 км  слабая морось  8/8 330 м  +5.1  +3.8  91  +1  +1      996.9         
19:20 26.03 С  16 км    ясно  +11.0  -6.7  28  +8  +11      1002.9         
19:40 26.03 С  5
{9} 
16 км    ясно  +10.5  -8.1  26  +8  +11      1002.9         
20:00 26.03 СВ  16 км    ясно  +10.7  -7.6  27  +8  +10      1003.2         
20:20 26.03 СВ  16 км    ясно  +10.6  -9.1  24  +8  +11      1003.5         
20:40 26.03 СВ  6
{10} 
16 км    ясно  +10.2  -10.2  23  +7  +9      1003.5         
21:00 26.03 СВ  4
{7} 
16 км    ясно  +10.1  -9.4  24  +8  +9      1003.9         
21:20 26.03 СВ  4
{8} 
16 км    ясно  +9.7  -10.2  23  +7  +8      1003.9         

 

Местоположение метеостанции Henderson-Oxford Airport: широта 36.3617 долгота -78.5292 высота над уровнем моря 161 м.

В архиве по умолчанию представлена погода в Оксфорде за последние 1-2 суток. Обновление информации о фактической погоде в базе происходит ежечасно! Архивные данные за месяц целиком и за предыдущие месяцы Вы можете получить, выбрав интересующий диапазон дат из раскрывающегося списка и нажав кнопку "Ввод!".

Внимание! Архив погоды МЕТАР в базе сайта хранится не более 60 дней. Нет смысла пытаться выбрать более раннюю дату.

Внимание! Время в таблицах - всемирное. Для получения местного времени необходимо прибавить поправку, которая в Оксфорде равна -5 ч.

Ветер - указаны скорость ветра в м/с и направление, откуда дует ветер: С - северный, СВ - северо-восточный, В - восточный, ЮВ - юго-восточный, Ю - южный, ЮЗ - юго-западный, З - западный, СЗ - северо-западный.
Видимость - горизонтальная дальность видимости в метрах или километрах. При видимости от 1 до 10 км при отсутствии осадков обычно наблюдается дымка, при ухудшении видимости до 1 км и менее - туман. В сухую погоду видимость может ухудшаться дымом, пылью или мглою.
Атмосферные явления - указаны явления, наблюдавшиеся в указанный момент времени.
Облачность - указаны через наклонную черту верхняя и нижняя облачность в баллах и высота нижней границы облаков в метрах. Внимание: облачность, как и прочие метеорологические величины в США измеряются автоматическими метеостанциями. Указанные значения в баллах носят условный характер и показывают процент времени, в течение которого, в среднем, лазерный луч высотомера отражался от облаков обратно.
T - Температура воздуха - температура, измеренная на высоте 2 м над землей.
Td - Температура точки росы - температура, при понижении до которой содержащийся в воздухе водяной пар достигнет насыщения.
f - Относительная влажность воздуха - влажноcть воздуха, измеренная на высоте 2 м над землей.
Te - Эффективная температура - температура, которую ощущает одетый по сезону человек в тени. Характеристика душности погоды. При расчете учитывается влияние влажности воздуха и скорости ветра на теплоощущения человека.
Tes - Эффективная температура на солнце - температура, которую ощущает человек, с поправкой на солнечный нагрев. Характеристика знойности погоды. Зависит от высоты солнца над горизонтом, облачности и скорости ветра. Ночью, в пасмурную погоду, а также при ветре 12 м/с и более поправка равна нулю.
P - Атмосферное давление - приведенное к уровню моря атмосферное давление.
Po - Атмосферное давление - измеренное на уровне метеостанции атмосферное давление.
Tmin - Минимальная температура - минимум температуры воздуха на высоте 2 м над землей.
Tmax - Максимальная температура - максимум температуры воздуха на высоте 2 м над землей.
R - Количество осадков - Количество выпавших осадков за 3 или 6 часов, мм.
SD - Снежный покров - Высота снежного покрова, см.